EN

Hourly Weather Abapo

Today, 26 November, Thursday

Time Temperature Precipitation Wind Pressure Humidity
00:00 +27°C° 0 mm 1 mps 708 mmHg 58%
01:00 +26°C° 0 mm 1 mps 708 mmHg 60%
02:00 +26°C° 0 mm 1 mps 707 mmHg 61%
03:00 +26°C° 0 mm 1 mps 707 mmHg 63%
04:00 +25°C° 0 mm 1 mps 707 mmHg 64%
05:00 +25°C° 0 mm 1 mps 707 mmHg 66%
06:00 +28°C° 0 mm 1 mps 708 mmHg 57%
07:00 +31°C° 0 mm 1 mps 709 mmHg 49%
08:00 +34°C° 0 mm 2 mps 709 mmHg 40%
09:00 +37°C° 0 mm 2 mps 709 mmHg 36%
10:00 +39°C° 0 mm 3 mps 709 mmHg 32%
11:00 +42°C° 0 mm 4 mps 710 mmHg 28%
12:00 +42°C° 0 mm 5 mps 709 mmHg 28%
13:00 +42°C° 0 mm 6 mps 708 mmHg 28%
14:00 +44°C° 0 mm 6 mps 708 mmHg 28%
15:00 +42°C° 0 mm 6 mps 707 mmHg 29%
16:00 +40°C° 0 mm 6 mps 707 mmHg 31%
17:00 +39°C° 0 mm 6 mps 707 mmHg 33%
18:00 +36°C° 0 mm 5 mps 707 mmHg 39%
19:00 +34°C° 0 mm 4 mps 708 mmHg 45%
20:00 +31°C° 0 mm 2 mps 708 mmHg 51%
21:00 +30°C° 0 mm 2 mps 709 mmHg 56%
22:00 +29°C° 0 mm 1 mps 709 mmHg 62%
23:00 +27°C° 0 mm 1 mps 709 mmHg 67%

Tomorrow, 27 November, Friday

Time Temperature Precipitation Wind Pressure Humidity
00:00 +27°C° 0.1 mm 1 mps 709 mmHg 71%
01:00 +26°C° 0.1 mm 1 mps 709 mmHg 75%
02:00 +25°C° 0.1 mm 1 mps 709 mmHg 79%
03:00 +25°C° 0.1 mm 1 mps 709 mmHg 81%
04:00 +25°C° 0.1 mm 1 mps 709 mmHg 83%
05:00 +24°C° 0.1 mm 1 mps 710 mmHg 86%
06:00 +26°C° 0.2 mm 1 mps 710 mmHg 80%
07:00 +28°C° 0.2 mm 1 mps 711 mmHg 73%
08:00 +30°C° 0.2 mm 1 mps 712 mmHg 67%
09:00 +32°C° 0.8 mm 2 mps 711 mmHg 59%
10:00 +34°C° 0.8 mm 3 mps 711 mmHg 50%
11:00 +36°C° 0.8 mm 4 mps 711 mmHg 41%
12:00 +37°C° 0 mm 4 mps 710 mmHg 37%
13:00 +39°C° 0 mm 5 mps 709 mmHg 34%
14:00 +40°C° 0 mm 5 mps 709 mmHg 30%
15:00 +40°C° 0 mm 5 mps 708 mmHg 31%
16:00 +39°C° 0 mm 5 mps 708 mmHg 32%
17:00 +39°C° 0 mm 5 mps 707 mmHg 33%
18:00 +35°C° 0 mm 4 mps 707 mmHg 40%
19:00 +33°C° 0 mm 3 mps 708 mmHg 47%
20:00 +30°C° 0 mm 2 mps 708 mmHg 54%
21:00 +29°C° 0 mm 1 mps 708 mmHg 57%
22:00 +28°C° 0 mm 1 mps 708 mmHg 59%
23:00 +27°C° 0 mm 1 mps 709 mmHg 62%

Day after tomorrow, 28 November, Saturday

Time Temperature Precipitation Wind Pressure Humidity
00:00 +26°C° 0 mm 1 mps 708 mmHg 63%
01:00 +26°C° 0 mm 1 mps 708 mmHg 64%
02:00 +25°C° 0 mm 1 mps 708 mmHg 65%
03:00 +25°C° 0 mm 1 mps 708 mmHg 66%
04:00 +25°C° 0 mm 1 mps 708 mmHg 67%
05:00 +22°C° 0 mm 0 mps 708 mmHg 68%
06:00 +28°C° 0 mm 1 mps 709 mmHg 58%
07:00 +31°C° 0 mm 1 mps 710 mmHg 49%
08:00 +35°C° 0 mm 2 mps 711 mmHg 39%
09:00 +37°C° 0 mm 3 mps 710 mmHg 35%
10:00 +40°C° 0 mm 5 mps 710 mmHg 30%
11:00 +41°C° 0 mm 6 mps 710 mmHg 26%
12:00 +42°C° 0 mm 6 mps 710 mmHg 25%
13:00 +42°C° 0 mm 6 mps 709 mmHg 25%
14:00 +44°C° 0 mm 6 mps 708 mmHg 24%
15:00 +42°C° 0 mm 6 mps 708 mmHg 25%
16:00 +41°C° 0 mm 6 mps 707 mmHg 26%
17:00 +40°C° 0 mm 6 mps 707 mmHg 27%
18:00 +37°C° 0 mm 5 mps 707 mmHg 33%
19:00 +35°C° 0 mm 4 mps 708 mmHg 40%
20:00 +33°C° 0 mm 3 mps 708 mmHg 46%
21:00 +30°C° 0 mm 2 mps 708 mmHg 51%
22:00 +29°C° 0 mm 2 mps 708 mmHg 57%
23:00 +27°C° 0 mm 1 mps 708 mmHg 62%

29 November, Sunday

Time Temperature Precipitation Wind Pressure Humidity
00:00 +26°C° 0 mm 1 mps 708 mmHg 64%
01:00 +26°C° 0 mm 1 mps 708 mmHg 66%
02:00 +25°C° 0 mm 1 mps 707 mmHg 69%
03:00 +22°C° 0 mm 0 mps 708 mmHg 70%
04:00 +22°C° 0 mm 0 mps 708 mmHg 71%
05:00 +22°C° 0 mm 0 mps 708 mmHg 72%
06:00 +25°C° 0 mm 0 mps 709 mmHg 61%
07:00 +28°C° 0 mm 0 mps 710 mmHg 51%
08:00 +31°C° 0 mm 0 mps 711 mmHg 41%
09:00 +36°C° 0 mm 2 mps 711 mmHg 35%
10:00 +39°C° 0 mm 3 mps 711 mmHg 30%
11:00 +42°C° 0 mm 4 mps 711 mmHg 24%
12:00 +42°C° 0 mm 5 mps 710 mmHg 24%
13:00 +43°C° 0 mm 5 mps 710 mmHg 24%
14:00 +44°C° 0 mm 6 mps 709 mmHg 23%
15:00 +42°C° 0 mm 6 mps 708 mmHg 25%
16:00 +41°C° 0 mm 6 mps 708 mmHg 27%
17:00 +40°C° 0 mm 6 mps 707 mmHg 29%
18:00 +37°C° 0 mm 4 mps 708 mmHg 34%
19:00 +35°C° 0 mm 3 mps 708 mmHg 40%
20:00 +31°C° 0 mm 2 mps 708 mmHg 45%
21:00 +30°C° 0 mm 2 mps 709 mmHg 51%
22:00 +28°C° 0 mm 1 mps 709 mmHg 56%
23:00 +25°C° 0 mm 0 mps 709 mmHg 61%

30 November, Monday

Time Temperature Precipitation Wind Pressure Humidity
00:00 +26°C° 0 mm 1 mps 709 mmHg 63%
01:00 +26°C° 0 mm 1 mps 709 mmHg 65%
02:00 +25°C° 0 mm 1 mps 708 mmHg 67%
03:00 +25°C° 0 mm 1 mps 709 mmHg 68%
04:00 +24°C° 0 mm 1 mps 709 mmHg 68%
05:00 +24°C° 0 mm 1 mps 709 mmHg 69%
06:00 +28°C° 0 mm 1 mps 710 mmHg 58%
07:00 +31°C° 0 mm 1 mps 710 mmHg 48%
08:00 +33°C° 0 mm 0 mps 711 mmHg 37%
09:00 +38°C° 0 mm 2 mps 711 mmHg 32%
10:00 +40°C° 0 mm 3 mps 711 mmHg 27%
11:00 +42°C° 0 mm 4 mps 710 mmHg 22%
12:00 +43°C° 0 mm 4 mps 710 mmHg 22%
13:00 +43°C° 0 mm 5 mps 709 mmHg 21%
14:00 +45°C° 0 mm 5 mps 708 mmHg 21%
15:00 +43°C° 0 mm 5 mps 708 mmHg 22%
16:00 +42°C° 0 mm 5 mps 707 mmHg 23%
17:00 +42°C° 0 mm 6 mps 706 mmHg 25%
18:00 +38°C° 0 mm 4 mps 707 mmHg 30%
19:00 +36°C° 0 mm 3 mps 707 mmHg 35%
20:00 +32°C° 0 mm 2 mps 707 mmHg 41%
21:00 +31°C° 0 mm 2 mps 708 mmHg 47%
22:00 +29°C° 0 mm 1 mps 708 mmHg 52%
23:00 +27°C° 0 mm 1 mps 708 mmHg 58%

1 December, Tuesday

Time Temperature Precipitation Wind Pressure Humidity
00:00 +27°C° 0 mm 1 mps 708 mmHg 60%
01:00 +26°C° 0 mm 1 mps 707 mmHg 63%
02:00 +23°C° 0 mm 0 mps 707 mmHg 65%
03:00 +23°C° 0 mm 0 mps 707 mmHg 67%
04:00 +23°C° 0 mm 0 mps 707 mmHg 68%
05:00 +22°C° 0 mm 0 mps 707 mmHg 70%
06:00 +25°C° 0 mm 0 mps 708 mmHg 60%
07:00 +31°C° 0 mm 1 mps 709 mmHg 50%
08:00 +34°C° 0 mm 1 mps 709 mmHg 40%
09:00 +37°C° 0 mm 2 mps 709 mmHg 34%
10:00 +40°C° 0 mm 4 mps 709 mmHg 28%
11:00 +43°C° 0 mm 5 mps 709 mmHg 22%
12:00 +44°C° 0 mm 6 mps 708 mmHg 21%
13:00 +45°C° 0 mm 7 mps 707 mmHg 21%
14:00 +45°C° 0 mm 7 mps 706 mmHg 21%
15:00 +44°C° 0 mm 7 mps 706 mmHg 23%
16:00 +43°C° 0 mm 7 mps 705 mmHg 25%
17:00 +41°C° 0 mm 7 mps 705 mmHg 27%
18:00 +39°C° 0 mm 6 mps 705 mmHg 33%
19:00 +36°C° 0 mm 5 mps 705 mmHg 38%
20:00 +33°C° 0 mm 4 mps 706 mmHg 43%
21:00 +31°C° 0 mm 3 mps 706 mmHg 48%
22:00 +29°C° 0 mm 2 mps 706 mmHg 53%
23:00 +28°C° 0 mm 2 mps 706 mmHg 58%
Show more